ラーソン彗星

261P/Larson (2019)

English version
Home page
Updated on June 14, 2021

---------------------------------------------------------------------

・ プロフィール

・ 写真集

・ 軌道要素

Epoch 2019 June 6.0 TT = JDT 2458640.5                                          
T 2019 June 18.66106 TT                                 Rudenko                 
q   2.0134040            (2000.0)            P               Q                  
n   0.15131082     Peri.   67.10770     +0.99471955     +0.02810532             
a   3.4878360      Node   291.16496     -0.06815754     +0.89996297             
e   0.4227355      Incl.    6.07598     +0.07673054     +0.43505948             
P   6.51                                                                        
From 972 observations 2005 Nov. 19-2020 Feb. 12, mean residual 0".8.            
     Nongravitational parameters A1 = +1.01, A2 = +0.0865.                      

・ 星図

・ 光度変化

        m1 = 2.5 + 5 logΔ + 40.0 log r(t - 40)

---------------------------------------------------------------------

軌道要素はM.P.E.C. 2021-F20に掲載されたものです。
星図はステラナビゲータ Ver.10 (アストロアーツ) で作成したものです。
光度グラフはComet for Windowsで作成したものです。

---------------------------------------------------------------------

Copyright(C) Seiichi Yoshida (comet@aerith.net). All rights reserved.